Simultaneous Nadir Overpasses (SNOs) Predictions

Prediction of SNOs between LANDSAT-8 and NOAA-19 Satellite Orbit:

Table of predicted SNOs for the next 14.0 days since TLE Epoch: 10/25/2014
Index Date (LANDSAT-8) Time (LANDSAT-8) Lat,Lon (LANDSAT-8) SZA (LANDSAT-8 ) Date (NOAA-19) Time (NOAA-19) Lat,Lon (NOAA-19) SZA (NOAA-19 ) Distance(km) Time Diff (sec)
1 10/25/2014 18:54:50 -72.35, 76.23 95.45 10/25/2014 18:54:32 -72.35, 76.26 95.44 1.25 18
2 10/25/2014 19:44:21 72.04,-116.68 84.24 10/25/2014 19:45:32 72.05,-115.90 84.28 26.95 71
3 10/27/2014 23:39:05 -72.41, 5.28 94.64 10/27/2014 23:38:16 -72.43, 5.21 94.63 2.86 49
4 10/28/2014 00:28:32 72.32, 172.75 85.28 10/28/2014 00:29:19 72.30, 172.70 85.27 2.75 47
5 10/30/2014 04:23:16 -72.67, -65.30 93.63 10/30/2014 04:22:05 -72.76, -66.40 93.57 37.62 71
6 10/30/2014 05:12:48 72.31, 101.67 86.01 10/30/2014 05:13:01 72.32, 101.77 86.01 3.30 13
7 11/01/2014 09:57:02 72.40, 30.76 86.80 11/01/2014 09:56:44 72.40, 30.71 86.80 1.67 18
8 11/01/2014 10:46:32 -72.28,-161.82 93.31 11/01/2014 10:47:41 -72.30,-161.84 93.28 2.13 69
9 11/03/2014 14:41:16 72.46, -40.19 87.56 11/03/2014 14:40:26 72.44, -40.28 87.54 3.62 50
10 11/03/2014 15:30:46 -72.35, 127.24 92.55 11/03/2014 15:31:23 -72.31, 127.24 92.58 3.57 37
11 11/05/2014 19:25:25 72.77,-110.66 88.56 11/05/2014 19:24:15 72.85,-112.04 88.61 46.31 70
12 11/05/2014 20:15:00 -72.39, 56.26 91.83 11/05/2014 20:15:06 -72.39, 56.18 91.83 2.53 6
13 11/08/2014 00:59:14 -72.42,
